owner,sensor,date,latitude,longitude,vertical_datum,wind_speed,wind_to_direction,wind_speed_of_gust,qcFlag 
COMPS,ioos:station:USF.COMPS:NFB:1,2014-08-01T00:00:00Z,25.0840,-81.0960,6.0,8.21,58.8,9.8,'1111122,1111122,1111122' 
COMPS,ioos:station:USF.COMPS:NFB:1,2014-08-01T00:06:00Z,25.0840,-81.0960,6.0,6.49,46.61,7.93,'1111122,1111122,1111122' 
COMPS,ioos:station:USF.COMPS:NFB:1,2014-08-01T00:12:00Z,25.0840,-81.0960,6.0,6.99,50.71,8.62,'1111122,1111122,1111122' 
COMPS,ioos:station:USF.COMPS:NFB:1,2014-08-01T00:18:00Z,25.0840,-81.0960,6.0,5.67,43.87,6.95,'1111122,1111122,1111122' 
COMPS,ioos:station:USF.COMPS:NFB:1,2014-08-01T00:24:00Z,25.0840,-81.0960,6.0,5.3,28.53,6.27,'1111122,1111122,1111122' 
COMPS,ioos:station:USF.COMPS:NFB:1,2014-08-01T00:30:00Z,25.0840,-81.0960,6.0,3.68,29.52,4.6,'1111122,1111122,1111122' 
COMPS,ioos:station:USF.COMPS:NFB:1,2014-08-01T00:36:00Z,25.0840,-81.0960,6.0,3.42,19.06,4.31,'1111122,1111122,1111122' 
COMPS,ioos:station:USF.COMPS:NFB:1,2014-08-01T00:42:00Z,25.0840,-81.0960,6.0,2.06,359.35,3.23,'1111122,1111122,1111122' 
COMPS,ioos:station:USF.COMPS:NFB:1,2014-08-01T00:48:00Z,25.0840,-81.0960,6.0,1.19,336.58,1.66,'1111122,1111122,1111122' 
COMPS,ioos:station:USF.COMPS:NFB:1,2014-08-01T00:54:00Z,25.0840,-81.0960,6.0,0.68,344.43,1.07,'1111122,1111122,1111122' 
COMPS,ioos:station:USF.COMPS:NFB:1,2014-08-01T01:00:00Z,25.0840,-81.0960,6.0,0.5,333.89,1.07,'1111122,1111122,1111122' 
COMPS,ioos:station:USF.COMPS:NFB:1,2014-08-01T01:06:00Z,25.0840,-81.0960,6.0,0.65,347.53,1.27,'1111122,1111122,1111122' 
COMPS,ioos:station:USF.COMPS:NFB:1,2014-08-01T01:12:00Z,25.0840,-81.0960,6.0,0.23,312.42,0.68,'1111122,1111122,1111122' 
COMPS,ioos:station:USF.COMPS:NFB:1,2014-08-01T01:18:00Z,25.0840,-81.0960,6.0,0.79,248.42,1.27,'1111122,1111122,1111122' 
COMPS,ioos:station:USF.COMPS:NFB:1,2014-08-01T01:24:00Z,25.0840,-81.0960,6.0,2.0,220.74,4.01,'1111122,1111122,1111122' 
COMPS,ioos:station:USF.COMPS:NFB:1,2014-08-01T01:30:00Z,25.0840,-81.0960,6.0,3.84,207.69,5.09,'1111122,1111122,1111122' 
COMPS,ioos:station:USF.COMPS:NFB:1,2014-08-01T01:36:00Z,25.0840,-81.0960,6.0,2.24,197.22,3.23,'1111122,1111122,1111122' 
COMPS,ioos:station:USF.COMPS:NFB:1,2014-08-01T01:42:00Z,25.0840,-81.0960,6.0,2.09,218.13,3.33,'1111122,1111122,1111122' 
COMPS,ioos:station:USF.COMPS:NFB:1,2014-08-01T01:48:00Z,25.0840,-81.0960,6.0,2.98,16.47,5.97,'1111122,1111122,1111122' 
COMPS,ioos:station:USF.COMPS:NFB:1,2014-08-01T01:54:00Z,25.0840,-81.0960,6.0,5.98,37.9,7.15,'1111122,1111122,1111122' 
COMPS,ioos:station:USF.COMPS:NFB:1,2014-08-01T02:00:00Z,25.0840,-81.0960,6.0,6.41,45.22,7.15,'1111122,1111122,1111122' 
COMPS,ioos:station:USF.COMPS:NFB:1,2014-08-01T02:06:00Z,25.0840,-81.0960,6.0,5.69,50.61,6.27,'1111122,1111122,1111122' 
COMPS,ioos:station:USF.COMPS:NFB:1,2014-08-01T02:12:00Z,25.0840,-81.0960,6.0,5.53,54.49,6.56,'1111122,1111122,1111122' 
COMPS,ioos:station:USF.COMPS:NFB:1,2014-08-01T02:18:00Z,25.0840,-81.0960,6.0,6.27,69.82,7.15,'1111122,1111122,1111122' 
COMPS,ioos:station:USF.COMPS:NFB:1,2014-08-01T02:24:00Z,25.0840,-81.0960,6.0,5.81,66.93,6.76,'1111122,1111122,1111122' 
COMPS,ioos:station:USF.COMPS:NFB:1,2014-08-01T02:30:00Z,25.0840,-81.0960,6.0,6.36,67.54,7.25,'1111122,1111122,1111122' 
COMPS,ioos:station:USF.COMPS:NFB:1,2014-08-01T02:36:00Z,25.0840,-81.0960,6.0,6.45,61.22,7.74,'1111122,1111122,1111122' 
COMPS,ioos:station:USF.COMPS:NFB:1,2014-08-01T02:42:00Z,25.0840,-81.0960,6.0,5.61,62.35,6.56,'1111122,1111122,1111122' 
COMPS,ioos:station:USF.COMPS:NFB:1,2014-08-01T02:48:00Z,25.0840,-81.0960,6.0,5.11,58.46,6.56,'1111122,1111122,1111122' 
COMPS,ioos:station:USF.COMPS:NFB:1,2014-08-01T02:54:00Z,25.0840,-81.0960,6.0,4.62,72.72,5.29,'1111122,1111122,1111122' 
COMPS,ioos:station:USF.COMPS:NFB:1,2014-08-01T03:00:00Z,25.0840,-81.0960,6.0,4.4,74.87,4.99,'1111122,1111122,1111122' 
COMPS,ioos:station:USF.COMPS:NFB:1,2014-08-01T03:06:00Z,25.0840,-81.0960,6.0,4.21,79.66,4.9,'1111122,1111122,1111122' 
COMPS,ioos:station:USF.COMPS:NFB:1,2014-08-01T03:12:00Z,25.0840,-81.0960,6.0,4.09,65.51,5.09,'1111122,1111122,1111122' 
COMPS,ioos:station:USF.COMPS:NFB:1,2014-08-01T03:18:00Z,25.0840,-81.0960,6.0,4.3,71.18,5.29,'1111122,1111122,1111122' 
COMPS,ioos:station:USF.COMPS:NFB:1,2014-08-01T03:24:00Z,25.0840,-81.0960,6.0,3.91,70.54,4.5,'1111122,1111122,1111122' 
COMPS,ioos:station:USF.COMPS:NFB:1,2014-08-01T03:30:00Z,25.0840,-81.0960,6.0,3.87,66.03,4.8,'1111122,1111122,1111122' 
COMPS,ioos:station:USF.COMPS:NFB:1,2014-08-01T03:36:00Z,25.0840,-81.0960,6.0,4.33,55.22,5.29,'1111122,1111122,1111122' 
COMPS,ioos:station:USF.COMPS:NFB:1,2014-08-01T03:42:00Z,25.0840,-81.0960,6.0,4.33,57.69,5.39,'1111122,1111122,1111122' 
COMPS,ioos:station:USF.COMPS:NFB:1,2014-08-01T03:48:00Z,25.0840,-81.0960,6.0,4.2,68.07,4.9,'1111122,1111122,1111122' 
COMPS,ioos:station:USF.COMPS:NFB:1,2014-08-01T03:54:00Z,25.0840,-81.0960,6.0,4.38,72.28,5.09,'1111122,1111122,1111122' 
COMPS,ioos:station:USF.COMPS:NFB:1,2014-08-01T04:00:00Z,25.0840,-81.0960,6.0,4.45,74.94,4.9,'1111122,1111122,1111122' 
COMPS,ioos:station:USF.COMPS:NFB:1,2014-08-01T04:06:00Z,25.0840,-81.0960,6.0,4.8,78.88,5.48,'1111122,1111122,1111122' 
COMPS,ioos:station:USF.COMPS:NFB:1,2014-08-01T04:12:00Z,25.0840,-81.0960,6.0,4.52,77.2,5.19,'1111122,1111122,1111122' 
COMPS,ioos:station:USF.COMPS:NFB:1,2014-08-01T04:18:00Z,25.0840,-81.0960,6.0,4.96,66.23,5.58,'1111122,1111122,1111122' 
COMPS,ioos:station:USF.COMPS:NFB:1,2014-08-01T04:24:00Z,25.0840,-81.0960,6.0,5.1,73.47,5.97,'1111122,1111122,1111122' 
COMPS,ioos:station:USF.COMPS:NFB:1,2014-08-01T04:30:00Z,25.0840,-81.0960,6.0,4.53,72.84,5.58,'1111122,1111122,1111122' 
COMPS,ioos:station:USF.COMPS:NFB:1,2014-08-01T04:36:00Z,25.0840,-81.0960,6.0,4.75,78.41,5.29,'1111122,1111122,1111122' 
COMPS,ioos:station:USF.COMPS:NFB:1,2014-08-01T04:42:00Z,25.0840,-81.0960,6.0,4.38,76.36,5.09,'1111122,1111122,1111122' 
COMPS,ioos:station:USF.COMPS:NFB:1,2014-08-01T04:48:00Z,25.0840,-81.0960,6.0,3.92,77.51,4.7,'1111122,1111122,1111122' 
COMPS,ioos:station:USF.COMPS:NFB:1,2014-08-01T04:54:00Z,25.0840,-81.0960,6.0,4.02,81.8,4.7,'1111122,1111122,1111122' 
COMPS,ioos:station:USF.COMPS:NFB:1,2014-08-01T05:00:00Z,25.0840,-81.0960,6.0,4.0,84.23,4.41,'1111122,1111122,1111122' 
COMPS,ioos:station:USF.COMPS:NFB:1,2014-08-01T05:06:00Z,25.0840,-81.0960,6.0,3.78,85.25,4.41,'1111122,1111122,1111122' 
COMPS,ioos:station:USF.COMPS:NFB:1,2014-08-01T05:12:00Z,25.0840,-81.0960,6.0,3.91,82.88,4.6,'1111122,1111122,1111122' 
COMPS,ioos:station:USF.COMPS:NFB:1,2014-08-01T05:18:00Z,25.0840,-81.0960,6.0,3.71,85.83,4.31,'1111122,1111122,1111122' 
COMPS,ioos:station:USF.COMPS:NFB:1,2014-08-01T05:24:00Z,25.0840,-81.0960,6.0,3.16,79.39,3.72,'1111122,1111122,1111122' 
COMPS,ioos:station:USF.COMPS:NFB:1,2014-08-01T05:30:00Z,25.0840,-81.0960,6.0,3.62,78.94,4.41,'1111122,1111122,1111122' 
COMPS,ioos:station:USF.COMPS:NFB:1,2014-08-01T05:36:00Z,25.0840,-81.0960,6.0,3.83,77.16,4.5,'1111122,1111122,1111122' 
COMPS,ioos:station:USF.COMPS:NFB:1,2014-08-01T05:42:00Z,25.0840,-81.0960,6.0,3.8,77.5,4.6,'1111122,1111122,1111122' 
COMPS,ioos:station:USF.COMPS:NFB:1,2014-08-01T05:48:00Z,25.0840,-81.0960,6.0,3.81,94.57,5.09,'1111122,1111122,1111122' 
COMPS,ioos:station:USF.COMPS:NFB:1,2014-08-01T05:54:00Z,25.0840,-81.0960,6.0,4.1,84.79,5.29,'1111122,1111122,1111122' 
COMPS,ioos:station:USF.COMPS:NFB:1,2014-08-01T06:00:00Z,25.0840,-81.0960,6.0,4.11,85.29,4.9,'1111122,1111122,1111122' 
COMPS,ioos:station:USF.COMPS:NFB:1,2014-08-01T06:06:00Z,25.0840,-81.0960,6.0,4.37,88.38,5.29,'1111122,1111122,1111122' 
COMPS,ioos:station:USF.COMPS:NFB:1,2014-08-01T06:12:00Z,25.0840,-81.0960,6.0,4.35,91.59,5.29,'1111122,1111122,1111122' 
COMPS,ioos:station:USF.COMPS:NFB:1,2014-08-01T06:18:00Z,25.0840,-81.0960,6.0,4.33,92.06,5.39,'1111122,1111122,1111122' 
COMPS,ioos:station:USF.COMPS:NFB:1,2014-08-01T06:24:00Z,25.0840,-81.0960,6.0,4.35,92.23,5.58,'1111122,1111122,1111122' 
COMPS,ioos:station:USF.COMPS:NFB:1,2014-08-01T06:30:00Z,25.0840,-81.0960,6.0,4.17,89.38,5.29,'1111122,1111122,1111122' 
COMPS,ioos:station:USF.COMPS:NFB:1,2014-08-01T06:36:00Z,25.0840,-81.0960,6.0,4.11,98.0,5.19,'1111122,1111122,1111122' 
COMPS,ioos:station:USF.COMPS:NFB:1,2014-08-01T06:42:00Z,25.0840,-81.0960,6.0,4.62,106.47,5.78,'1111122,1111122,1111122' 
COMPS,ioos:station:USF.COMPS:NFB:1,2014-08-01T06:48:00Z,25.0840,-81.0960,6.0,5.11,102.26,6.37,'1111122,1111122,1111122' 
COMPS,ioos:station:USF.COMPS:NFB:1,2014-08-01T06:54:00Z,25.0840,-81.0960,6.0,4.91,108.77,6.27,'1111122,1111122,1111122' 
COMPS,ioos:station:USF.COMPS:NFB:1,2014-08-01T07:00:00Z,25.0840,-81.0960,6.0,5.13,107.35,6.85,'1111122,1111122,1111122' 
COMPS,ioos:station:USF.COMPS:NFB:1,2014-08-01T07:06:00Z,25.0840,-81.0960,6.0,6.09,105.58,6.95,'1111122,1111122,1111122' 
COMPS,ioos:station:USF.COMPS:NFB:1,2014-08-01T07:12:00Z,25.0840,-81.0960,6.0,5.59,110.23,6.56,'1111122,1111122,1111122' 
COMPS,ioos:station:USF.COMPS:NFB:1,2014-08-01T07:18:00Z,25.0840,-81.0960,6.0,5.65,112.42,7.15,'1111122,1111122,1111122' 
COMPS,ioos:station:USF.COMPS:NFB:1,2014-08-01T07:24:00Z,25.0840,-81.0960,6.0,6.57,116.5,7.64,'1111122,1111122,1111122' 
COMPS,ioos:station:USF.COMPS:NFB:1,2014-08-01T07:30:00Z,25.0840,-81.0960,6.0,6.07,116.06,7.35,'1111122,1111122,1111122' 
COMPS,ioos:station:USF.COMPS:NFB:1,2014-08-01T07:36:00Z,25.0840,-81.0960,6.0,6.16,113.21,7.44,'1111122,1111122,1111122' 
COMPS,ioos:station:USF.COMPS:NFB:1,2014-08-01T07:42:00Z,25.0840,-81.0960,6.0,5.38,121.53,6.37,'1111122,1111122,1111122' 
COMPS,ioos:station:USF.COMPS:NFB:1,2014-08-01T07:48:00Z,25.0840,-81.0960,6.0,5.65,129.39,7.05,'1111122,1111122,1111122' 
COMPS,ioos:station:USF.COMPS:NFB:1,2014-08-01T07:54:00Z,25.0840,-81.0960,6.0,5.68,129.68,6.56,'1111122,1111122,1111122' 
COMPS,ioos:station:USF.COMPS:NFB:1,2014-08-01T08:00:00Z,25.0840,-81.0960,6.0,5.49,139.4,6.37,'1111122,1111122,1111122' 
COMPS,ioos:station:USF.COMPS:NFB:1,2014-08-01T08:06:00Z,25.0840,-81.0960,6.0,5.56,135.79,6.85,'1111122,1111122,1111122' 
COMPS,ioos:station:USF.COMPS:NFB:1,2014-08-01T08:12:00Z,25.0840,-81.0960,6.0,6.05,138.76,7.05,'1111122,1111122,1111122' 
COMPS,ioos:station:USF.COMPS:NFB:1,2014-08-01T08:18:00Z,25.0840,-81.0960,6.0,6.22,138.68,7.35,'1111122,1111122,1111122' 
COMPS,ioos:station:USF.COMPS:NFB:1,2014-08-01T08:24:00Z,25.0840,-81.0960,6.0,5.42,140.68,6.37,'1111122,1111122,1111122' 
COMPS,ioos:station:USF.COMPS:NFB:1,2014-08-01T08:30:00Z,25.0840,-81.0960,6.0,6.05,137.3,7.74,'1111122,1111122,1111122' 
COMPS,ioos:station:USF.COMPS:NFB:1,2014-08-01T08:36:00Z,25.0840,-81.0960,6.0,5.31,126.61,7.05,'1111122,1111122,1111122' 
COMPS,ioos:station:USF.COMPS:NFB:1,2014-08-01T08:42:00Z,25.0840,-81.0960,6.0,5.06,124.72,6.46,'1111122,1111122,1111122' 
COMPS,ioos:station:USF.COMPS:NFB:1,2014-08-01T08:48:00Z,25.0840,-81.0960,6.0,5.19,127.04,6.37,'1111122,1111122,1111122' 
COMPS,ioos:station:USF.COMPS:NFB:1,2014-08-01T08:54:00Z,25.0840,-81.0960,6.0,5.46,130.89,6.56,'1111122,1111122,1111122' 
COMPS,ioos:station:USF.COMPS:NFB:1,2014-08-01T09:00:00Z,25.0840,-81.0960,6.0,5.2,128.79,6.37,'1111122,1111122,1111122' 
COMPS,ioos:station:USF.COMPS:NFB:1,2014-08-01T09:06:00Z,25.0840,-81.0960,6.0,4.65,130.1,6.27,'1111122,1111122,1111122' 
COMPS,ioos:station:USF.COMPS:NFB:1,2014-08-01T09:12:00Z,25.0840,-81.0960,6.0,5.21,135.91,6.46,'1111122,1111122,1111122' 
COMPS,ioos:station:USF.COMPS:NFB:1,2014-08-01T09:18:00Z,25.0840,-81.0960,6.0,5.5,138.88,6.56,'1111122,1111122,1111122' 
COMPS,ioos:station:USF.COMPS:NFB:1,2014-08-01T09:24:00Z,25.0840,-81.0960,6.0,5.57,143.19,6.66,'1111122,1111122,1111122' 
COMPS,ioos:station:USF.COMPS:NFB:1,2014-08-01T09:30:00Z,25.0840,-81.0960,6.0,5.13,142.91,6.46,'1111122,1111122,1111122' 
COMPS,ioos:station:USF.COMPS:NFB:1,2014-08-01T09:36:00Z,25.0840,-81.0960,6.0,4.62,147.05,5.97,'1111122,1111122,1111122' 
COMPS,ioos:station:USF.COMPS:NFB:1,2014-08-01T09:42:00Z,25.0840,-81.0960,6.0,5.04,142.84,6.27,'1111122,1111122,1111122' 
COMPS,ioos:station:USF.COMPS:NFB:1,2014-08-01T09:48:00Z,25.0840,-81.0960,6.0,5.13,144.85,6.27,'1111122,1111122,1111122' 
COMPS,ioos:station:USF.COMPS:NFB:1,2014-08-01T09:54:00Z,25.0840,-81.0960,6.0,4.61,148.05,6.76,'1111122,1111122,1111122' 
COMPS,ioos:station:USF.COMPS:NFB:1,2014-08-01T10:00:00Z,25.0840,-81.0960,6.0,3.91,153.63,5.09,'1111122,1111122,1111122' 
COMPS,ioos:station:USF.COMPS:NFB:1,2014-08-01T10:06:00Z,25.0840,-81.0960,6.0,4.21,157.74,5.19,'1111122,1111122,1111122' 
COMPS,ioos:station:USF.COMPS:NFB:1,2014-08-01T10:12:00Z,25.0840,-81.0960,6.0,4.65,142.91,5.68,'1111122,1111122,1111122' 
COMPS,ioos:station:USF.COMPS:NFB:1,2014-08-01T10:18:00Z,25.0840,-81.0960,6.0,4.27,146.52,5.39,'1111122,1111122,1111122' 
COMPS,ioos:station:USF.COMPS:NFB:1,2014-08-01T10:24:00Z,25.0840,-81.0960,6.0,4.65,144.43,6.17,'1111122,1111122,1111122' 
COMPS,ioos:station:USF.COMPS:NFB:1,2014-08-01T10:30:00Z,25.0840,-81.0960,6.0,4.79,145.25,5.78,'1111122,1111122,1111122' 
COMPS,ioos:station:USF.COMPS:NFB:1,2014-08-01T10:36:00Z,25.0840,-81.0960,6.0,4.78,155.14,6.17,'1111122,1111122,1111122' 
COMPS,ioos:station:USF.COMPS:NFB:1,2014-08-01T10:42:00Z,25.0840,-81.0960,6.0,4.26,146.26,5.29,'1111122,1111122,1111122' 
COMPS,ioos:station:USF.COMPS:NFB:1,2014-08-01T10:48:00Z,25.0840,-81.0960,6.0,4.63,154.06,6.17,'1111122,1111122,1111122' 
COMPS,ioos:station:USF.COMPS:NFB:1,2014-08-01T10:54:00Z,25.0840,-81.0960,6.0,4.38,163.88,5.39,'1111122,1111122,1111122' 
COMPS,ioos:station:USF.COMPS:NFB:1,2014-08-01T11:00:00Z,25.0840,-81.0960,6.0,4.66,159.72,5.97,'1111122,1111122,1111122' 
COMPS,ioos:station:USF.COMPS:NFB:1,2014-08-01T11:06:00Z,25.0840,-81.0960,6.0,4.52,156.17,5.68,'1111122,1111122,1111122' 
COMPS,ioos:station:USF.COMPS:NFB:1,2014-08-01T11:12:00Z,25.0840,-81.0960,6.0,4.81,158.14,5.87,'1111122,1111122,1111122' 
COMPS,ioos:station:USF.COMPS:NFB:1,2014-08-01T11:18:00Z,25.0840,-81.0960,6.0,3.97,159.81,4.8,'1111122,1111122,1111122' 
COMPS,ioos:station:USF.COMPS:NFB:1,2014-08-01T11:24:00Z,25.0840,-81.0960,6.0,4.26,156.08,5.87,'1111122,1111122,1111122' 
COMPS,ioos:station:USF.COMPS:NFB:1,2014-08-01T11:30:00Z,25.0840,-81.0960,6.0,4.15,158.5,5.39,'1111122,1111122,1111122' 
COMPS,ioos:station:USF.COMPS:NFB:1,2014-08-01T11:36:00Z,25.0840,-81.0960,6.0,4.18,147.26,5.09,'1111122,1111122,1111122' 
COMPS,ioos:station:USF.COMPS:NFB:1,2014-08-01T11:42:00Z,25.0840,-81.0960,6.0,4.37,139.39,5.48,'1111122,1111122,1111122' 
COMPS,ioos:station:USF.COMPS:NFB:1,2014-08-01T11:48:00Z,25.0840,-81.0960,6.0,4.65,151.3,5.58,'1111122,1111122,1111122' 
COMPS,ioos:station:USF.COMPS:NFB:1,2014-08-01T11:54:00Z,25.0840,-81.0960,6.0,4.81,147.16,5.68,'1111122,1111122,1111122' 
COMPS,ioos:station:USF.COMPS:NFB:1,2014-08-01T12:00:00Z,25.0840,-81.0960,6.0,4.16,144.7,5.19,'1111122,1111122,1111122' 
COMPS,ioos:station:USF.COMPS:NFB:1,2014-08-01T12:06:00Z,25.0840,-81.0960,6.0,5.0,167.05,6.17,'1111122,1111122,1111122' 
COMPS,ioos:station:USF.COMPS:NFB:1,2014-08-01T12:12:00Z,25.0840,-81.0960,6.0,5.4,175.56,6.17,'1111122,1111122,1111122' 
COMPS,ioos:station:USF.COMPS:NFB:1,2014-08-01T12:18:00Z,25.0840,-81.0960,6.0,5.09,169.74,6.07,'1111122,1111122,1111122' 
COMPS,ioos:station:USF.COMPS:NFB:1,2014-08-01T12:24:00Z,25.0840,-81.0960,6.0,4.4,165.4,5.19,'1111122,1111122,1111122' 
COMPS,ioos:station:USF.COMPS:NFB:1,2014-08-01T12:30:00Z,25.0840,-81.0960,6.0,5.77,178.88,7.83,'1111122,1111122,1111122' 
COMPS,ioos:station:USF.COMPS:NFB:1,2014-08-01T12:36:00Z,25.0840,-81.0960,6.0,6.5,178.0,7.44,'1111122,1111122,1111122' 
COMPS,ioos:station:USF.COMPS:NFB:1,2014-08-01T12:42:00Z,25.0840,-81.0960,6.0,5.59,181.01,6.85,'1111122,1111122,1111122' 
COMPS,ioos:station:USF.COMPS:NFB:1,2014-08-01T12:48:00Z,25.0840,-81.0960,6.0,6.56,177.51,8.33,'1111122,1111122,1111122' 
COMPS,ioos:station:USF.COMPS:NFB:1,2014-08-01T12:54:00Z,25.0840,-81.0960,6.0,5.05,182.24,5.87,'1111122,1111122,1111122' 
COMPS,ioos:station:USF.COMPS:NFB:1,2014-08-01T13:00:00Z,25.0840,-81.0960,6.0,4.3,169.73,5.09,'1111122,1111122,1111122' 
COMPS,ioos:station:USF.COMPS:NFB:1,2014-08-01T13:06:00Z,25.0840,-81.0960,6.0,4.23,167.59,4.99,'1111122,1111122,1111122' 
COMPS,ioos:station:USF.COMPS:NFB:1,2014-08-01T13:12:00Z,25.0840,-81.0960,6.0,4.12,167.74,4.8,'1111122,1111122,1111122' 
COMPS,ioos:station:USF.COMPS:NFB:1,2014-08-01T13:18:00Z,25.0840,-81.0960,6.0,3.32,172.23,4.6,'1111122,1111122,1111122' 
COMPS,ioos:station:USF.COMPS:NFB:1,2014-08-01T13:24:00Z,25.0840,-81.0960,6.0,4.02,170.3,5.58,'1111122,1111122,1111122' 
COMPS,ioos:station:USF.COMPS:NFB:1,2014-08-01T13:30:00Z,25.0840,-81.0960,6.0,4.06,167.3,4.9,'1111122,1111122,1111122' 
COMPS,ioos:station:USF.COMPS:NFB:1,2014-08-01T13:36:00Z,25.0840,-81.0960,6.0,3.43,160.89,4.01,'1111122,1111122,1111122' 
COMPS,ioos:station:USF.COMPS:NFB:1,2014-08-01T13:42:00Z,25.0840,-81.0960,6.0,3.5,142.48,4.99,'1111122,1111122,1111122' 
COMPS,ioos:station:USF.COMPS:NFB:1,2014-08-01T13:48:00Z,25.0840,-81.0960,6.0,3.98,141.18,5.19,'1111122,1111122,1111122' 
COMPS,ioos:station:USF.COMPS:NFB:1,2014-08-01T13:54:00Z,25.0840,-81.0960,6.0,4.08,140.65,5.19,'1111122,1111122,1111122' 
COMPS,ioos:station:USF.COMPS:NFB:1,2014-08-01T14:00:00Z,25.0840,-81.0960,6.0,4.48,151.28,5.68,'1111122,1111122,1111122' 
COMPS,ioos:station:USF.COMPS:NFB:1,2014-08-01T14:06:00Z,25.0840,-81.0960,6.0,4.26,150.32,5.87,'1111122,1111122,1111122' 
COMPS,ioos:station:USF.COMPS:NFB:1,2014-08-01T14:12:00Z,25.0840,-81.0960,6.0,4.42,144.04,5.48,'1111122,1111122,1111122' 
COMPS,ioos:station:USF.COMPS:NFB:1,2014-08-01T14:18:00Z,25.0840,-81.0960,6.0,4.5,154.8,5.58,'1111122,1111122,1111122' 
COMPS,ioos:station:USF.COMPS:NFB:1,2014-08-01T14:24:00Z,25.0840,-81.0960,6.0,4.19,145.85,4.99,'1111122,1111122,1111122' 
COMPS,ioos:station:USF.COMPS:NFB:1,2014-08-01T14:30:00Z,25.0840,-81.0960,6.0,4.28,141.14,5.19,'1111122,1111122,1111122' 
COMPS,ioos:station:USF.COMPS:NFB:1,2014-08-01T14:36:00Z,25.0840,-81.0960,6.0,4.26,149.91,5.48,'1111122,1111122,1111122' 
COMPS,ioos:station:USF.COMPS:NFB:1,2014-08-01T14:42:00Z,25.0840,-81.0960,6.0,3.86,144.85,4.99,'1111122,1111122,1111122' 
COMPS,ioos:station:USF.COMPS:NFB:1,2014-08-01T14:48:00Z,25.0840,-81.0960,6.0,4.3,152.16,5.19,'1111122,1111122,1111122' 
COMPS,ioos:station:USF.COMPS:NFB:1,2014-08-01T14:54:00Z,25.0840,-81.0960,6.0,3.98,158.72,4.99,'1111122,1111122,1111122' 
COMPS,ioos:station:USF.COMPS:NFB:1,2014-08-01T15:00:00Z,25.0840,-81.0960,6.0,4.07,150.68,4.8,'1111122,1111122,1111122' 
COMPS,ioos:station:USF.COMPS:NFB:1,2014-08-01T15:06:00Z,25.0840,-81.0960,6.0,3.66,164.13,4.41,'1111122,1111122,1111122' 
COMPS,ioos:station:USF.COMPS:NFB:1,2014-08-01T15:12:00Z,25.0840,-81.0960,6.0,3.52,154.54,4.99,'1111122,1111122,1111122' 
COMPS,ioos:station:USF.COMPS:NFB:1,2014-08-01T15:18:00Z,25.0840,-81.0960,6.0,3.29,167.2,4.31,'1111122,1111122,1111122' 
COMPS,ioos:station:USF.COMPS:NFB:1,2014-08-01T15:24:00Z,25.0840,-81.0960,6.0,3.41,163.7,4.31,'1111122,1111122,1111122' 
COMPS,ioos:station:USF.COMPS:NFB:1,2014-08-01T15:30:00Z,25.0840,-81.0960,6.0,3.69,154.76,4.8,'1111122,1111122,1111122' 
COMPS,ioos:station:USF.COMPS:NFB:1,2014-08-01T15:36:00Z,25.0840,-81.0960,6.0,3.54,146.91,4.41,'1111122,1111122,1111122' 
COMPS,ioos:station:USF.COMPS:NFB:1,2014-08-01T15:42:00Z,25.0840,-81.0960,6.0,4.12,172.94,5.39,'1111122,1111122,1111122' 
COMPS,ioos:station:USF.COMPS:NFB:1,2014-08-01T15:48:00Z,25.0840,-81.0960,6.0,4.02,183.05,4.99,'1111122,1111122,1111122' 
COMPS,ioos:station:USF.COMPS:NFB:1,2014-08-01T15:54:00Z,25.0840,-81.0960,6.0,3.63,189.24,4.21,'1111122,1111122,1111122' 
COMPS,ioos:station:USF.COMPS:NFB:1,2014-08-01T16:00:00Z,25.0840,-81.0960,6.0,3.49,184.71,5.09,'1111122,1111122,1111122' 
COMPS,ioos:station:USF.COMPS:NFB:1,2014-08-01T16:06:00Z,25.0840,-81.0960,6.0,3.13,192.21,4.01,'1111122,1111122,1111122' 
COMPS,ioos:station:USF.COMPS:NFB:1,2014-08-01T16:12:00Z,25.0840,-81.0960,6.0,3.09,193.5,4.31,'1111122,1111122,1111122' 
COMPS,ioos:station:USF.COMPS:NFB:1,2014-08-01T16:18:00Z,25.0840,-81.0960,6.0,3.82,183.96,4.99,'1111122,1111122,1111122' 
COMPS,ioos:station:USF.COMPS:NFB:1,2014-08-01T16:24:00Z,25.0840,-81.0960,6.0,2.89,176.72,4.5,'1111122,1111122,1111122' 
COMPS,ioos:station:USF.COMPS:NFB:1,2014-08-01T16:30:00Z,25.0840,-81.0960,6.0,2.56,172.38,3.03,'1111122,1111122,1111122' 
COMPS,ioos:station:USF.COMPS:NFB:1,2014-08-01T16:36:00Z,25.0840,-81.0960,6.0,1.84,182.95,2.64,'1111122,1111122,1111122' 
COMPS,ioos:station:USF.COMPS:NFB:1,2014-08-01T16:42:00Z,25.0840,-81.0960,6.0,1.49,185.43,2.35,'1111122,1111122,1111122' 
COMPS,ioos:station:USF.COMPS:NFB:1,2014-08-01T16:48:00Z,25.0840,-81.0960,6.0,1.38,175.74,3.03,'1111122,1111122,1111122' 
COMPS,ioos:station:USF.COMPS:NFB:1,2014-08-01T16:54:00Z,25.0840,-81.0960,6.0,2.8,169.44,4.31,'1111122,1111122,1111122' 
COMPS,ioos:station:USF.COMPS:NFB:1,2014-08-01T17:00:00Z,25.0840,-81.0960,6.0,3.12,159.16,3.82,'1111122,1111122,1111122' 
COMPS,ioos:station:USF.COMPS:NFB:1,2014-08-01T17:06:00Z,25.0840,-81.0960,6.0,2.75,177.84,3.91,'1111122,1111122,1111122' 
COMPS,ioos:station:USF.COMPS:NFB:1,2014-08-01T17:12:00Z,25.0840,-81.0960,6.0,2.56,165.49,3.42,'1111122,1111122,1111122' 
COMPS,ioos:station:USF.COMPS:NFB:1,2014-08-01T17:18:00Z,25.0840,-81.0960,6.0,2.56,164.36,3.72,'1111122,1111122,1111122' 
COMPS,ioos:station:USF.COMPS:NFB:1,2014-08-01T17:24:00Z,25.0840,-81.0960,6.0,2.22,181.7,3.23,'1111122,1111122,1111122' 
COMPS,ioos:station:USF.COMPS:NFB:1,2014-08-01T17:30:00Z,25.0840,-81.0960,6.0,2.77,189.16,3.52,'1111122,1111122,1111122' 
COMPS,ioos:station:USF.COMPS:NFB:1,2014-08-01T17:36:00Z,25.0840,-81.0960,6.0,1.38,172.09,3.13,'1111122,1111122,1111122' 
COMPS,ioos:station:USF.COMPS:NFB:1,2014-08-01T17:42:00Z,25.0840,-81.0960,6.0,1.08,43.7,2.64,'1111122,1111122,1111122' 
COMPS,ioos:station:USF.COMPS:NFB:1,2014-08-01T17:48:00Z,25.0840,-81.0960,6.0,1.93,355.33,3.52,'1111122,1111122,1111122' 
COMPS,ioos:station:USF.COMPS:NFB:1,2014-08-01T17:54:00Z,25.0840,-81.0960,6.0,1.45,24.03,2.84,'1111122,1111122,1111122' 
COMPS,ioos:station:USF.COMPS:NFB:1,2014-08-01T18:00:00Z,25.0840,-81.0960,6.0,0.56,17.52,2.15,'1111122,1111122,1111122' 
COMPS,ioos:station:USF.COMPS:NFB:1,2014-08-01T18:06:00Z,25.0840,-81.0960,6.0,1.85,33.92,4.41,'1111122,1111122,1111122' 
COMPS,ioos:station:USF.COMPS:NFB:1,2014-08-01T18:12:00Z,25.0840,-81.0960,6.0,3.01,27.52,4.01,'1111122,1111122,1111122' 
COMPS,ioos:station:USF.COMPS:NFB:1,2014-08-01T18:18:00Z,25.0840,-81.0960,6.0,3.23,21.24,4.21,'1111122,1111122,1111122' 
COMPS,ioos:station:USF.COMPS:NFB:1,2014-08-01T18:24:00Z,25.0840,-81.0960,6.0,2.91,15.58,3.72,'1111122,1111122,1111122' 
COMPS,ioos:station:USF.COMPS:NFB:1,2014-08-01T18:30:00Z,25.0840,-81.0960,6.0,3.09,15.23,3.82,'1111122,1111122,1111122' 
COMPS,ioos:station:USF.COMPS:NFB:1,2014-08-01T18:36:00Z,25.0840,-81.0960,6.0,2.15,7.93,2.74,'1111122,1111122,1111122' 
COMPS,ioos:station:USF.COMPS:NFB:1,2014-08-01T18:42:00Z,25.0840,-81.0960,6.0,2.18,334.32,3.23,'1111122,1111122,1111122' 
COMPS,ioos:station:USF.COMPS:NFB:1,2014-08-01T18:48:00Z,25.0840,-81.0960,6.0,2.81,315.52,3.91,'1111122,1111122,1111122' 
COMPS,ioos:station:USF.COMPS:NFB:1,2014-08-01T18:54:00Z,25.0840,-81.0960,6.0,2.14,283.3,3.62,'1111122,1111122,1111122' 
COMPS,ioos:station:USF.COMPS:NFB:1,2014-08-01T19:00:00Z,25.0840,-81.0960,6.0,2.18,276.19,3.62,'1111122,1111122,1111122' 
COMPS,ioos:station:USF.COMPS:NFB:1,2014-08-01T19:06:00Z,25.0840,-81.0960,6.0,2.35,295.09,3.03,'1111122,1111122,1111122' 
COMPS,ioos:station:USF.COMPS:NFB:1,2014-08-01T19:12:00Z,25.0840,-81.0960,6.0,2.13,322.16,2.84,'1111122,1111122,1111122' 
COMPS,ioos:station:USF.COMPS:NFB:1,2014-08-01T19:18:00Z,25.0840,-81.0960,6.0,1.88,312.82,2.74,'1111122,1111122,1111122' 
COMPS,ioos:station:USF.COMPS:NFB:1,2014-08-01T19:24:00Z,25.0840,-81.0960,6.0,0.9,6.41,2.05,'1111122,1111122,1111122' 
COMPS,ioos:station:USF.COMPS:NFB:1,2014-08-01T19:30:00Z,25.0840,-81.0960,6.0,0.9,17.85,2.05,'1111122,1111122,1111122' 
COMPS,ioos:station:USF.COMPS:NFB:1,2014-08-01T19:36:00Z,25.0840,-81.0960,6.0,0.83,16.48,2.05,'1111122,1111122,1111122' 
COMPS,ioos:station:USF.COMPS:NFB:1,2014-08-01T19:42:00Z,25.0840,-81.0960,6.0,0.16,32.92,0.49,'1111122,1111122,1111122' 